Tracking 18987 objects as of 17-Feb-2018
HD Live streaming from Space Station
objects crossing your sky now

BREEZE-M DEB (TANK)

Track BREEZE-M DEB (TANK) now!
10-day predictions


NORAD ID: 33374
Int'l Code: 2008-044B
Perigee: 352.6 km
Apogee: 16,298.9 km
Inclination: 49.5 °
Period: 295.5 minutes
Semi major axis: 14696 km
RCS: 5.0119 m2 (large)
Launch date: September 19, 2008
Source: Commonwealth of Independent States (former USSR) (CIS)
Launch site: TYURATAM MISSILE AND SPACE COMPLEX (TTMTR)

Note: This is SATELLITE DEBRIS
aabbcc
Your satellite tracking list
Your tracking list is empty




NASA's NSSDC Master Catalog

Two Line Element Set (TLE):
1 33374U 08044B   18045.41219551 +.00000323 +00000-0 +21230-3 0  9991
2 33374 049.4716 113.6130 5425130 230.1499 068.0237 04.87271064165801
Source of the keplerian elements: AFSPC